Regional Weather Roundup
Issued by NWS

Home | Current Version | Previous Version | Text Only | Print | Product List | Glossary Off
Versions: 1 2 3 4 5 6 7 8 9 10 11 12 13 14 15 16 17 18 19 20 21 22 23 24 25 26 27 28 29 30 31 32 33 34 35 36 37 38 39 40 41 42 43 44 45 46 47 48 49 50

000
ASUS43 KOAX 011510
RWRNE

WEATHER ROUNDUP FOR NEBRASKA
NATIONAL WEATHER SERVICE OMAHA NE
900 AM CST SUN FEB 01 2015

NOTES: SATELLITE DATA IS BEING USED TO AUGMENT CLOUD COVER ABOVE
       12000 FEET.
       "FAIR" INDICATES FEW OR NO CLOUDS BELOW 12,000 FEET WITH NO
       SIGNIFICANT WEATHER AND/OR OBSTRUCTIONS TO VISIBILITY.

  * THESE STATIONS DO NOT REPORT WEATHER SUCH AS RAIN...SNOW OR FOG.

NEZ001>004-019>022-054>056-011600-
NEBRASKA PANHANDLE

CITY           SKY/WX    TMP DP  RH WIND       PRES   REMARKS
SCOTTSBLUFF    CLOUDY    17  10  74 N17G26    30.22R WCI   1
ALLIANCE       CLOUDY     6   1  80 N17       30.21R WCI -13
CHADRON        CLOUDY     6   1  80 N9        30.32R WCI  -8
KIMBALL        CLOUDY    18  11  75 N25G31    30.11R WCI  -1
SIDNEY         LGT SNOW  10   6  84 N20       30.16R FOG     WCI  -9
$$

NEZ057>060-069>072-079>082-011600-
SOUTHWEST NEBRASKA

CITY           SKY/WX    TMP DP  RH WIND       PRES   REMARKS
NORTH PLATTE   CLOUDY     8   1  73 NW23      30.21R WCI -13
IMPERIAL       CLOUDY    13   5  70 N20       30.20R WCI  -5
LEXINGTON      CLOUDY    10   5  79 N22G29    30.18R HAZE    WCI  -9
MCCOOK         SUNNY     13   5  70 NW24      30.19R WCI  -7
OGALLALA       CLOUDY    12   6  77 N26G36    30.21R WCI  -9
$$

NEZ005>010-023>029-035>040-094-011600-
NORTH CENTRAL NEBRASKA

CITY           SKY/WX    TMP DP  RH WIND       PRES   REMARKS
VALENTINE      LGT SNOW   1  -6  72 N18G29    30.29R VSB 1   WCI -20
AINSWORTH      LGT SNOW   2  -3  81 N24       30.25R WCI -21
BROKEN BOW     LGT SNOW   7   2  80 N29G39    30.16R VSB 1   WCI -16
O`NEILL        SNOW       3  -1  84 NW26G35   30.22R VSB 1/2 WCI -20
ORD            LGT SNOW   6  -1  73 N25G33    30.17R VSB 3/4 WCI -16
THEDFORD       LGT SNOW   4   0  80 NW21G31   30.22R WCI -16
$$

NEZ041-046>049-061>064-073>077-083>087-011600-
SOUTH CENTRAL NEBRASKA

CITY           SKY/WX    TMP DP  RH WIND       PRES   REMARKS
GRAND ISLAND   BLWGSNOW   8   4  83 N29G39    30.13R VSB 1/4 WCI -15
AURORA         SNOW       9   6  87 N33G41    30.10R VSB 1/4 WCI -15
HASTINGS       FOG        9   5  84 N30G45    30.09R VSB 1/4 WCI -14
HEBRON         LGT SNOW  14  10  83 N17G26    30.04R VSB 3/4 WCI  -3
HOLDREGE       LGT SNOW  10   6  84 N24G35    30.12R VSB 1   WCI -10
KEARNEY *      CLOUDY     9   3  78 N30G37    30.13R VSB 1   WCI -14
YORK           HVY SNOW   9   7  92 N23G32    30.07R WCI -12
$$

NEZ011>018-030>034-042>045-011600-
NORTHEAST NEBRASKA

CITY           SKY/WX    TMP DP  RH WIND       PRES   REMARKS
NORFOLK        LGT SNOW   8   4  83 N26G40    30.11R VSB 3/4 WCI -14
ALBION         LGT SNOW   6   1  78 N20G29    30.13R VSB 3/4 WCI -13
BLAIR          LGT SNOW  21  18  86 N29G38    29.94R VSB 3/4 WCI   3
FREMONT        LGT SNOW  20  18  91 N21G29    30.02R VSB 3/4 WCI   4
TEKAMAH        FOG       19  16  88 N35       30.02R VSB 1/2 WCI  -1
WAYNE          SNOW      11   7  83 N23G40    30.11R VSB 1/2 WCI  -9
$$

NEZ050>053-065>068-078-088>093-011600-
SOUTHEAST NEBRASKA

CITY           SKY/WX    TMP DP  RH WIND       PRES   REMARKS
LINCOLN        SNOW      20  16  84 N33G45    29.99R VSB 1/2 WCI   0
OMAHA EPPLEY   LGT SNOW  22  19  89 N26G33    29.94R BLWGSNOWWCI   5
BEATRICE       SNOW      22  19  90 N22G29    29.96R VSB 1/2 WCI   6
FALLS CITY     LGT SNOW  30  28  92 N21G30    29.81R VSB 3/4 WCI  17
NEBRASKA CITY  LGT SNOW  25  24  96 N24G31    29.87R VSB 3/4 WCI  10
PLATTSMOUTH    LGT SNOW  23  20  89 N20G25    29.90R VSB 1   WCI   8
$$

NEZ044-045-051>053-067-011600-
OMAHA AREA

CITY           SKY/WX    TMP DP  RH WIND       PRES   REMARKS
OMAHA EPPLEY   LGT SNOW  22  19  89 N26G33    29.94R BLWGSNOWWCI   5
BLAIR          LGT SNOW  21  18  86 N29G38    29.94R VSB 3/4 WCI   3
FREMONT        LGT SNOW  20  18  91 N21G29    30.02R VSB 3/4 WCI   4
MILLARD        LGT SNOW  22  18  84 NW7       29.96R WCI  14
OFFUTT AFB     LGT SNOW  23  19  85 N16G25    29.93R FOG     WCI   9
PLATTSMOUTH    LGT SNOW  23  20  89 N20G25    29.90R VSB 1   WCI   8
WAHOO          SNOW      20  16  86 N33       30.00R VSB 1/2 WCI   0
$$



USA.gov is the U.S. government's official web portal to all federal, state and local government web resources and services.